Location: Zagreb
(45.8000°N, 16.0000°E)
Time: 19:09:54
(UTC+02:00)

A-11 Canister half - Pass Details

Date: 15 August 2022
Orbit: 1524 x 1684 km, 47.3° (Epoch: 05 October)

Event Time Altitude Azimuth Distance (km) Brightness Sun altitude
Rises 07:11:32 0° 256° (WSW) 4,914 11.0 11.9°
Reaches altitude 10° 07:14:40 10° 257° (WSW) 3,937 10.6 12.5°
Maximum altitude 07:24:53 88° 347° (NNW) 1,689 9.5 14.2°
Drops below altitude 10° 07:35:04 10° 79° (E) 3,923 13.6 16.0°
Sets 07:38:12 0° 80° (E) 4,897 13.4 16.5°
